STARLINK-1496, 45780

Orbit data source: Space-Track

STARLINK-1496, 45780 is a payload satellite owned by SpaceX/Seattle (US) in LEO that was launched on Sat, 13 Jun 2020 UTC via an FALCON 9 launch vehicle from the Air Force Eastern Test Range (AFETR). Payload-class satellites include a variety of spacecraft equipped with specific instruments for various scientific and technological missions. These include communications satellites like Starlink; space stations such as the ISS; scientific satellites like the Hubble; Earth observation satellites from companies like Planet Labs, Umbra, and HawkEye 360; GPS; miniature CubeSats for education and research; and military/defense satellites.

Loading next visibility...
Identifier
45780, 2020-038BC
Orbit
LEO
Country
Flag of USUS
Related business
Manufacturer
SpaceX/Seattle
Mission
Partially operational Commercial Communications
Bus & Motor
STARLINK, Unknown motor
Mass
260 kg wet, ~248 kg dry
Launch date (UTC)
2020-06-13 (6 years ago)
Launch vehicle
FALCON 9
Launch site
Air Force Eastern Test Range (AFETR)
Object type
Payload
Rocket body
Debris
Shape & HBR
Box + 1 Pan, 10.1 m
Radar Cross Section
13.562 m², Large (>1 m²)

Expand to show TLE details & history
Last TLE update: 9 hours ago

TLE from 9 hours ago
0 STARLINK-1496
1 45780U 20038BC  26256.49694137  .00117534  00000-0  50279-3 0  9998
2 45780  53.0381 334.2599 0003000 330.9005  29.1849 15.84318996346442
Epoch: 2026-09-13T11:55Z
TLE epoch observation values (Epoch: 2026-09-13T11:55:35.734Z)
Latitude
-0.00009°
Longitude
162.87019°
Altitude
317.397 km
Speed
7.72 km/s
True Right ascension
22h 17m 02s
True Declination
0° 00' 00"
Sunlit
Object was in full shadow at epoch
Visualization orbit readout
Latitude
Unknown
Longitude
Unknown
Altitude
Unknown
Speed
Unknown
Apparent Right ascension
Unknown
Apparent Declination
Unknown
Sunlit
N/A
Visualization observer readout
Local Sidereal Time
13:00:40
Azimuth
Unknown
Elevation
Unknown
Doppler factor
Unknown
Orbital elements
Apogee altitude
320.534 km
Perigee altitude
316.516 km
Semi-major axis
6,696.662 km
Eccentricity
0.0003
Inclination
53.0381°
RAAN
334.2599°
Arg. of periapsis
330.9005°
True anomaly
29.20167°
Mean anomaly
29.1849°
Eccentric anomaly
29.19328°
Mean motion
3.96055 °/min
Orbital period
90.9 mins
BSTAR
0.00050279
Loading maneuver chart data...
Computing Atmospheric mass density...

Documentation

Showing up to 5 results
|